Juliana Airport, Sint Maarten

1:47 AM AST on May 23, 2018 (GMT -0400)
Princess Juliana International

Weather History for TNCM - January, 2013

Change the Weather History Date:

Saturday, January 19, 2013

  Actual Average Record
Temperature  
Mean Temperature 76 °F -  
Max Temperature 83 °F 81 °F 84 °F (1997)
Min Temperature 70 °F 72 °F 66 °F (2000)
Cooling Degree Days 12    
Growing Degree Days 26 (Base 50)    
Moisture  
Dew Point 69 °F    
Average Humidity 72    
Maximum Humidity 88    
Minimum Humidity 50    
Precipitation  
Precipitation 0.04 in 0.07 in - ()
Sea Level Pressure  
Sea Level Pressure 30.03 in    
Wind  
Wind Speed 10 mph ()    
Max Wind Speed 17 mph    
Max Gust Speed -    
Visibility 7.5 miles    
Events Rain    
Averages and records for this station are not official NWS values.
T = Trace of Precipitation, MM = Missing Value Source: Averaged Metar Reports

Daily Weather History Graph

Daily Weather History Graph

Search for Another Location

Airport or City:

Astronomy

Jan. 19, 2013 Rise Set
Actual Time 6:47 AM AST 5:59 PM AST
Civil Twilight 6:23 AM AST 6:22 PM AST
Nautical Twilight 5:57 AM AST 6:49 PM AST
Astronomical Twilight 5:30 AM AST 7:15 PM AST
Moon 12:13 PM AST (1/19) 12:30 AM AST (1/19)
Length of Visible Light 11h 58m
Length of Day
11h 12m
First Quarter, 56% of the Moon is Illuminated
Jan 19
First Quarter
Jan 27
Full
Feb 3
Last Quarter
Feb 10
New
Feb 17
First Quarter

Hourly Weather History & Observations

Time (AST) Temp. Heat Index Dew Point Humidity Pressure Visibility Wind Dir Wind Speed Gust Speed Precip Events Conditions
12:00 AM 71.6 °F - 68.0 °F 88% 30.06 in 6.2 mi NE 11.5 mph - N/A Rain Light Rain Showers
1:00 AM 73.4 °F - 69.8 °F 88% 30.06 in 6.2 mi East 5.8 mph - N/A Rain Light Rain Showers
2:00 AM 74 °F - 70 °F 83% 30.04 in 19 mi NE 4.6 mph - - Rain Light Rain Showers
2:00 AM 73.4 °F - 69.8 °F 88% 30.04 in 6.2 mi NE 4.6 mph - N/A   Mostly Cloudy
3:00 AM 73.4 °F - 69.8 °F 88% 30.01 in 6.2 mi NE 5.8 mph - N/A   Mostly Cloudy
4:00 AM 75.2 °F - 68.0 °F 78% 30.01 in 6.2 mi East 15.0 mph - N/A   Mostly Cloudy
5:00 AM 76 °F - 69 °F 73% 30.01 in 19 mi ENE 15.0 mph - -   Mostly Cloudy
5:00 AM 75.2 °F - 69.8 °F 83% 30.01 in 6.2 mi ENE 15.0 mph - N/A   Mostly Cloudy
6:00 AM 75.2 °F - 68.0 °F 78% 30.01 in 6.2 mi ENE 15.0 mph - N/A   Partly Cloudy
7:00 AM 75.2 °F - 68.0 °F 78% 30.04 in 6.2 mi ENE 15.0 mph - N/A   Partly Cloudy
8:00 AM 77 °F - 69 °F 70% 30.06 in 28 mi East 17.3 mph - -   Scattered Clouds
8:00 AM 77.0 °F - 69.8 °F 78% 30.04 in 6.2 mi ENE 17.3 mph - N/A   Partly Cloudy
9:00 AM 78.8 °F - 68.0 °F 69% 30.06 in 6.2 mi ENE 11.5 mph - N/A   Partly Cloudy
10:00 AM 80.6 °F 83.9 °F 69.8 °F 70% 30.09 in 6.2 mi East 16.1 mph - N/A   Mostly Cloudy
11:00 AM 82 °F - 68 °F 53% 30.09 in 34 mi East 11.5 mph - -   Partly Cloudy
11:00 AM 80.6 °F 83.2 °F 68.0 °F 65% 30.06 in 6.2 mi East 15.0 mph - N/A   Scattered Clouds
12:00 PM 80.6 °F 83.2 °F 68.0 °F 65% 30.04 in 6.2 mi East 13.8 mph - N/A   Mostly Cloudy
1:00 PM 82.4 °F 85.4 °F 68.0 °F 62% 30.01 in 6.2 mi East 11.5 mph - N/A   Scattered Clouds
2:00 PM 83 °F - 67 °F 50% 30.00 in 37 mi ESE 11.5 mph - -   Partly Cloudy
2:00 PM 82.4 °F 85.4 °F 68.0 °F 62% 29.98 in 6.2 mi East 11.5 mph - N/A   Scattered Clouds
3:00 PM 82.4 °F 85.4 °F 68.0 °F 62% 29.98 in 6.2 mi ENE 16.1 mph - N/A   Mostly Cloudy
4:00 PM 80.6 °F 83.2 °F 68.0 °F 65% 29.98 in 6.2 mi East 15.0 mph - N/A   Mostly Cloudy
5:00 PM 80 °F - 68 °F 60% 30.01 in 16 mi East 16.1 mph - - Rain Light Rain Showers
5:00 PM 78.8 °F - 69.8 °F 74% 30.01 in 6.2 mi East 15.0 mph - N/A Rain Light Rain Showers
6:00 PM 77.0 °F - 68.0 °F 74% 30.01 in 6.2 mi East 11.5 mph - N/A   Mostly Cloudy
7:00 PM 77.0 °F - 68.0 °F 74% 30.04 in 6.2 mi East 10.4 mph - N/A   Mostly Cloudy
8:00 PM 77 °F - 69 °F 70% 30.06 in 31 mi East 9.2 mph - -  
8:00 PM 77.0 °F - 69.8 °F 78% 30.04 in 6.2 mi East 9.2 mph - N/A   Partly Cloudy
9:00 PM 77.0 °F - 68.0 °F 74% 30.06 in 6.2 mi East 11.5 mph - N/A   Partly Cloudy
10:00 PM 77.0 °F - 68.0 °F 74% 30.06 in 6.2 mi East 10.4 mph - N/A   Scattered Clouds
11:00 PM 77 °F - 68 °F 68% 30.05 in 28 mi East 12.7 mph - -   Scattered Clouds
11:00 PM 77.0 °F - 68.0 °F 74% 30.04 in 6.2 mi East 10.4 mph - N/A   Partly Cloudy